{"data":{"norad_id":58981,"epoch":"2026-05-24T16:28:12.327456Z","epoch_age_seconds":102261,"freshness":"FRESH","line1":"1 58981U 24031S   26144.68625379  .00000589  00000+0  28571-4 0  9992","line2":"2 58981  53.1633 303.3377 0001405  97.3493 262.7670 15.34391025128155","mean_motion":15.34391025,"eccentricity":0.0001405,"inclination_deg":53.1633,"raan_deg":303.3377,"arg_perigee_deg":97.3493,"mean_anomaly_deg":262.767,"bstar":2.8571e-5,"rev_number":12815,"period_min":93.848307018089,"perigee_km":461.76877412684,"apogee_km":463.69105773022,"semimajor_km":6840.8669159285,"source":"CELESTRAK","updated_at":"2026-05-25T13:38:18.796503Z"}}